N7EEL Weather Reports


Display with metric or nautical units.
time (UTC)temp
F
wind
direction
speed
MPH
gust
MPH
rain 1hr
in
rain 24hr
in
rain mn
in
humidity
%
barometer
mb
20260507143558 62 229 3.0 8.0 0.00 0.00 0.00
20260507140558 59 256 1.0 4.0 0.00 0.00 0.00
20260507133557 58 228 5.0 11.0 0.00 0.00 0.00
20260507130557 58 226 5.0 12.0 0.00 0.00 0.00
20260507123556 58 191 4.0 9.0 0.00 0.00 0.00
20260507120556 59 201 7.0 15.0 0.00 0.00 0.00
20260507113555 59 195 5.0 11.0 0.00 0.00 0.00
20260507110555 59 224 4.0 10.0 0.00 0.00 0.00
20260507103554 60 172 4.0 8.0 0.00 0.00 0.00
20260507100554 61 187 4.0 9.0 0.00 0.00 0.00
20260507093554 61 224 3.0 9.0 0.00 0.00 0.00
20260507090553 61 249 3.0 12.0 0.00 0.00 0.00
20260507083552 62 198 0.0 3.0 0.00 0.00 0.00
20260507080552 63 222 1.0 5.0 0.00 0.00 0.00
20260507073552 64 276 4.0 8.0 0.00 0.00 0.00
20260507070551 65 225 6.0 13.0 0.00 0.00 0.00
20260507063551 66 149 6.0 14.0 0.00 0.00 0.00
20260507060550 67 219 6.0 17.0 0.00 0.00 0.00
20260507053550 68 225 4.0 11.0 0.00 0.00 0.00
20260507050550 69 167 5.0 11.0 0.00 0.00 0.00
20260507043549 71 177 2.0 6.0 0.00 0.00 0.00
20260507040549 72 0 0.0 0.0 0.00 0.00 0.00
20260507033548 74 0 0.0 0.0 0.00 0.00 0.00
20260507030630 77 0 0.0 0.0 0.00 0.00 0.00
20260507030548 77 0 0.0 0.0 0.00 0.00 0.00
20260507023548 79 271 1.0 3.0 0.00 0.00 0.00
20260507020547 80 28 2.0 7.0 0.00 0.00 0.00
20260507013547 80 298 3.0 7.0 0.00 0.00 0.00
20260507010546 80 204 9.0 18.0 0.00 0.00 0.00
20260507003546 81 172 9.0 19.0 0.00 0.00 0.00
20260507000546 82 187 7.0 14.0 0.00 0.00 0.00
20260506233545 84 242 7.0 13.0 0.00 0.00 0.00
20260506230545 86 152 5.0 12.0 0.00 0.00 0.00
20260506223544 85 208 6.0 14.0 0.00 0.00 0.00
20260506220544 86 219 8.0 13.0 0.00 0.00 0.00
20260506213544 86 219 6.0 14.0 0.00 0.00 0.00
20260506210543 87 183 8.0 14.0 0.00 0.00 0.00
20260506203543 87 173 8.0 14.0 0.00 0.00 0.00
20260506200542 87 226 6.0 19.0 0.00 0.00 0.00
20260506193542 87 235 5.0 13.0 0.00 0.00 0.00
20260506190542 84 221 5.0 13.0 0.00 0.00 0.00
20260506183541 82 184 5.0 11.0 0.00 0.00 0.00
20260506180541 80 210 7.0 17.0 0.00 0.00 0.00
20260506173540 78 239 6.0 14.0 0.00 0.00 0.00
20260506170540 76 225 7.0 16.0 0.00 0.00 0.00
20260506163539 73 207 5.0 12.0 0.00 0.00 0.00
20260506160539 71 215 5.0 12.0 0.00 0.00 0.00
20260506153539 69 188 6.0 11.0 0.00 0.00 0.00
20260506150538 66 215 7.0 15.0 0.00 0.00 0.00